STARLINK-35899

Last updated on Tue Dec 16 2025 00:02:05 GMT+0000 (Coordinated Universal Time)

1 66497U 25263N 25349.32620637 .00060670 00000+0 10297-2 0 9991 2 66497 42.9982 109.9900 0000360 41.7635 318.3253 15.50641427 5961
UTC large
Height (km)
Speed (km/s)
/
Latitude / Longitude
Inclination (degrees)
Orbital Period (minutes)
Azimuth
Elevation
Range (km)
Doppler Factor

Next 0 passes for location: London (51.5072 / 0.1276)

Sorry there are no passes over London.